Location: Fauquembergues
(50.6005°N, 2.0987°E)
Time: 09:59:51
(UTC+00:00)

Cosmos 2061 Rocket - Pass Details

Date: 14 July 2020
Orbit: 965 x 1014 km, 82.9° (Epoch: 05 August)

Event Time Altitude Azimuth Distance (km) Brightness Sun altitude
Exits shadow 01:41:57 18° 184° (S) 2,260 5.3 -14.2°
Maximum altitude 01:46:56 85° 99° (E) 1,003 4.1 -13.8°
Drops below altitude 10° 01:53:16 10° 11° (N) 2,749 7.6 -13.4°
Sets 01:55:46 0° 11° (N) 3,694 8.6 -13.2°
